FW5198 Weather Reports


time (UTC)temp
C
wind
direction
speed
KPH
gust
KPH
rain 1hr
cm
rain 24hr
cm
rain mn
cm
humidity
%
barometer
mb
20260906003049 30 44 0.0 1.6 0.00 0.00 0.00 80 1011.9
20260906001548 30 44 0.0 1.6 0.00 0.00 0.00 79 1011.9
20260906000046 31 0 0.0 1.6 0.00 0.00 0.00 75 1011.9
20260905234553 32 44 0.0 1.6 0.00 0.00 0.00 73 1012.1
20260905233049 33 44 0.0 1.6 0.00 0.00 0.00 68 1012.2
20260905231546 34 43 0.0 4.8 0.00 0.00 0.00 64 1011.8
20260905230054 35 48 1.6 3.2 0.00 0.00 0.00 58 1011.9
20260905224601 35 46 1.6 4.8 0.00 0.00 0.00 58 1011.8
20260905223053 36 25 1.6 8.0 0.00 0.00 0.00 55 1011.9
20260905221556 35 38 1.6 8.0 0.00 0.00 0.00 55 1011.8
20260905220106 35 91 0.0 11.3 0.00 0.00 0.00 55 1012.0
20260905214549 36 0 3.2 9.7 0.00 0.00 0.00 54 1011.9
20260905213050 36 57 1.6 6.4 0.00 0.00 0.00 53 1012.0
20260905211603 36 46 3.2 9.7 0.00 0.00 0.00 51 1012.1
20260905210056 36 87 1.6 3.2 0.00 0.00 0.00 52 1012.1
20260905204555 36 200 1.6 6.4 0.00 0.00 0.00 51 1012.3
20260905203111 36 54 1.6 6.4 0.00 0.00 0.00 51 1012.5
20260905201547 36 1 3.2 14.5 0.00 0.00 0.00 51 1012.8
20260905200054 36 25 6.4 12.9 0.00 0.00 0.00 52 1013.0
20260905194551 36 29 1.6 8.0 0.00 0.00 0.00 52 1013.1
20260905193048 36 61 6.4 12.9 0.00 0.00 0.00 55 1013.4
20260905191546 36 30 3.2 14.5 0.00 0.00 0.00 54 1013.4
20260905190047 36 15 4.8 12.9 0.00 0.00 0.00 55 1013.8
20260905184600 36 150 1.6 9.7 0.00 0.00 0.00 56 1014.2
20260905183050 35 188 1.6 6.4 0.00 0.00 0.00 57 1014.2
20260905181605 35 69 1.6 6.4 0.00 0.00 0.00 59 1014.4
20260905180051 35 30 1.6 11.3 0.00 0.00 0.00 58 1014.6
20260905174624 35 20 4.8 9.7 0.00 0.00 0.00 59 1014.6
20260905173056 36 154 0.0 3.2 0.00 0.00 0.00 58 1014.7
20260905171549 36 37 0.0 4.8 0.00 0.00 0.00 55 1014.9
20260905170046 35 0 0.0 0.0 0.00 0.00 0.00 58 1015.0
20260905164546 35 0 0.0 0.0 0.00 0.00 0.00 56 1015.2
20260905163050 35 0 0.0 0.0 0.00 0.00 0.00 58 1015.3
20260905161547 34 0 0.0 0.0 0.00 0.00 0.00 60 1015.4
20260905160114 32 0 0.0 0.0 0.00 0.00 0.00 64 1015.5
20260905154551 31 0 0.0 0.0 0.00 0.00 0.00 71 1015.7
20260905153047 31 0 0.0 0.0 0.00 0.00 0.00 72 1015.9
20260905151602 30 0 0.0 0.0 0.00 0.00 0.00 75 1015.8
20260905150055 30 0 0.0 0.0 0.00 0.00 0.00 77 1015.9
20260905144549 28 0 0.0 0.0 0.00 0.00 0.00 82 1016.0
20260905143048 27 0 0.0 0.0 0.00 0.00 0.00 86 1016.0
20260905141550 27 0 0.0 0.0 0.00 0.00 0.00 87 1015.8
20260905140049 27 0 0.0 0.0 0.00 0.00 0.00 87 1015.8
20260905134545 26 0 0.0 0.0 0.00 0.00 0.00 89 1015.7
20260905133052 25 0 0.0 0.0 0.00 0.00 0.00 91 1015.9
20260905131549 25 0 0.0 0.0 0.00 0.00 0.00 91 1015.9
20260905130056 25 0 0.0 0.0 0.00 0.00 0.00 93 1015.8
20260905124555 24 0 0.0 0.0 0.00 0.00 0.00 94 1015.8
20260905123052 23 0 0.0 0.0 0.00 0.00 0.00 96 1015.8
20260905121547 23 0 0.0 0.0 0.00 0.00 0.00 96 1015.6
20260905120055 23 0 0.0 0.0 0.00 0.00 0.00 96 1015.5
20260905114552 23 0 0.0 0.0 0.00 0.00 0.00 96 1015.4
20260905113048 22 0 0.0 0.0 0.00 0.00 0.00 96 1015.1
20260905111558 22 0 0.0 0.0 0.00 0.00 0.00 96 1015.0
20260905110044 22 0 0.0 0.0 0.00 0.00 0.00 96 1014.7
20260905104550 23 0 0.0 0.0 0.00 0.00 0.00 96 1014.5
20260905103052 23 0 0.0 0.0 0.00 0.00 0.00 96 1014.4
20260905101547 23 0 0.0 0.0 0.00 0.00 0.00 96 1014.4
20260905100047 23 0 0.0 0.0 0.00 0.00 0.00 95 1014.4
20260905094553 23 0 0.0 0.0 0.00 0.00 0.00 95 1014.4
20260905093047 23 0 0.0 0.0 0.00 0.00 0.00 96 1014.4
20260905091614 23 0 0.0 0.0 0.00 0.00 0.00 95 1014.5
20260905090106 23 0 0.0 0.0 0.00 0.00 0.00 95 1014.4
20260905084550 23 0 0.0 0.0 0.00 0.00 0.00 95 1014.4
20260905083046 23 0 0.0 0.0 0.00 0.00 0.00 95 1014.3
20260905081553 23 0 0.0 0.0 0.00 0.00 0.00 94 1014.4
20260905080055 23 0 0.0 0.0 0.00 0.00 0.00 94 1014.5
20260905074547 23 0 0.0 0.0 0.00 0.00 0.00 94 1014.5
20260905073053 23 0 0.0 0.0 0.00 0.00 0.00 94 1014.5
20260905071546 23 0 0.0 0.0 0.00 0.00 0.00 94 1014.5
20260905070059 23 0 0.0 0.0 0.00 0.00 0.00 94 1014.4
20260905064548 23 0 0.0 0.0 0.00 0.00 0.00 94 1014.4
20260905063059 24 0 0.0 0.0 0.00 0.00 0.00 94 1014.4
20260905061619 24 0 0.0 0.0 0.00 0.00 0.00 93 1014.5
20260905060107 24 0 0.0 1.6 0.00 0.00 0.00 93 1014.6
20260905054549 24 0 0.0 1.6 0.00 0.00 0.00 92 1014.7
20260905053052 24 0 0.0 1.6 0.00 0.00 0.00 93 1014.8
20260905051553 25 0 0.0 1.6 0.00 0.00 0.00 92 1014.8
20260905050047 25 0 0.0 1.6 0.00 0.00 0.00 92 1015.0
20260905044550 25 0 0.0 0.0 0.00 0.00 0.00 91 1015.1
20260905043048 25 0 0.0 0.0 0.00 0.00 0.00 90 1015.0
20260905041550 25 0 0.0 0.0 0.00 0.00 0.00 90 1015.2
20260905040049 25 0 0.0 0.0 0.00 0.00 0.00 90 1015.2
20260905034554 26 0 0.0 0.0 0.00 0.00 0.00 89 1015.3
20260905033046 26 0 0.0 1.6 0.00 0.00 0.00 88 1015.3
20260905031554 26 0 0.0 1.6 0.00 0.00 0.00 88 1015.5
20260905030047 26 39 0.0 1.6 0.00 0.00 0.00 86 1015.5
20260905024548 27 0 0.0 0.0 0.00 0.00 0.00 86 1015.7
20260905023046 27 0 0.0 1.6 0.00 0.00 0.00 86 1015.6
20260905021556 27 0 0.0 3.2 0.00 0.00 0.00 85 1015.6
20260905020048 27 0 0.0 1.6 0.00 0.00 0.00 86 1015.6
20260905014547 27 0 0.0 1.6 0.00 0.00 0.00 85 1015.4
20260905013050 27 0 0.0 1.6 0.00 0.00 0.00 83 1015.3
20260905011549 28 47 1.6 3.2 0.00 0.00 0.00 82 1015.3
20260905010046 28 0 0.0 1.6 0.00 0.00 0.00 80 1015.2
20260905004549 29 49 0.0 1.6 0.00 0.00 0.00 79 1015.0